TUI6H EDDF-LGKO

Flight info

Callsign TUI6H
Flight time N/A
Altitude 37000
Route CINDY8S/18 CINDY Z74 LAMPU DCT NOMBO Y161 MAH DCT VAVOR DCT RADIZ DCT KUSIB DCT MEDUX UM867 KOGAT DCT ERANA DCT TSL DCT MES UN139 LURUS L995 KOPAR KOPAR1M
Aircraft B38M/M-SDE1FGHILORVWXY/HB1

Departure

Time N/A
Airport Frankfurt Main Airport (EDDF)

Arrival

Time 2026-05-05 19:58
Airport Kos International Airport "Ippokratis" (LGKO)
Time Latitude Longitude Altitude Speed Heading
2026-05-05 18:00 46.83054 13.86489 36925 ft 456 kts 135°
2026-05-05 18:00 46.78812 13.93380 36934 ft 456 kts 135°
2026-05-05 18:01 46.74565 14.00261 36931 ft 457 kts 135°
2026-05-05 18:01 46.70305 14.07144 36930 ft 457 kts 135°
2026-05-05 18:02 46.66045 14.14011 36940 ft 457 kts 135°
2026-05-05 18:02 46.61783 14.20864 36940 ft 457 kts 135°
2026-05-05 18:03 46.57521 14.27700 36909 ft 457 kts 135°
2026-05-05 18:03 46.53269 14.34501 36940 ft 458 kts 136°
2026-05-05 18:04 46.48985 14.41338 36946 ft 457 kts 136°
2026-05-05 18:04 46.44702 14.48154 36950 ft 456 kts 135°
2026-05-05 18:05 46.40428 14.54940 36978 ft 456 kts 135°
2026-05-05 18:05 46.36155 14.61707 36977 ft 457 kts 135°
2026-05-05 18:06 46.31847 14.68512 36990 ft 459 kts 135°
2026-05-05 18:06 46.27541 14.75297 36981 ft 459 kts 136°
2026-05-05 18:07 46.23212 14.82103 36978 ft 460 kts 136°
2026-05-05 18:07 46.18885 14.88887 36974 ft 457 kts 136°
2026-05-05 18:08 46.14572 14.95633 36977 ft 458 kts 136°
2026-05-05 18:08 46.10271 15.02342 36975 ft 458 kts 136°
2026-05-05 18:09 46.05943 15.09078 36956 ft 458 kts 136°
2026-05-05 18:09 46.01608 15.15808 36972 ft 458 kts 136°
2026-05-05 18:10 45.97268 15.22529 36950 ft 459 kts 136°
2026-05-05 18:10 45.92891 15.29287 36964 ft 462 kts 136°
2026-05-05 18:11 45.88525 15.36016 36967 ft 459 kts 136°
2026-05-05 18:11 45.84160 15.42725 36967 ft 460 kts 136°
2026-05-05 18:12 45.80528 15.48297 36969 ft 460 kts 136°
2026-05-05 18:12 45.76160 15.54980 36964 ft 460 kts 136°
2026-05-05 18:13 45.71072 15.62744 36968 ft 460 kts 136°
2026-05-05 18:13 45.67406 15.68326 36968 ft 459 kts 136°
2026-05-05 18:14 45.63026 15.74979 36972 ft 460 kts 136°
2026-05-05 18:14 45.58641 15.81623 36964 ft 460 kts 136°
2026-05-05 18:15 45.54224 15.88299 36976 ft 463 kts 136°
2026-05-05 18:15 45.49803 15.94965 36985 ft 463 kts 136°
2026-05-05 18:16 45.45381 16.01616 36985 ft 463 kts 136°
2026-05-05 18:16 45.40954 16.08258 36990 ft 462 kts 137°
2026-05-05 18:17 45.36553 16.14849 36997 ft 463 kts 136°
2026-05-05 18:17 45.32113 16.21484 36986 ft 463 kts 136°
2026-05-05 18:18 45.27664 16.28114 36982 ft 463 kts 136°
2026-05-05 18:18 45.23218 16.34727 36983 ft 463 kts 136°
2026-05-05 18:19 45.18760 16.41340 36983 ft 465 kts 136°
2026-05-05 18:19 45.14316 16.48029 36987 ft 466 kts 134°
2026-05-05 18:20 45.09995 16.54862 36990 ft 466 kts 135°
2026-05-05 18:20 45.05658 16.61673 36989 ft 466 kts 135°
2026-05-05 18:21 45.01317 16.68473 36982 ft 466 kts 135°
2026-05-05 18:21 44.96953 16.75292 36989 ft 469 kts 135°
2026-05-05 18:22 44.92568 16.82125 36991 ft 469 kts 135°
2026-05-05 18:22 44.88182 16.88945 36990 ft 468 kts 135°
2026-05-05 18:23 44.83801 16.95741 36991 ft 468 kts 135°
2026-05-05 18:23 44.79406 17.02542 37004 ft 471 kts 135°
2026-05-05 18:24 44.75017 17.09316 36990 ft 471 kts 135°
2026-05-05 18:24 44.70603 17.16113 36995 ft 470 kts 135°
2026-05-05 18:25 44.66186 17.22897 37023 ft 471 kts 135°
2026-05-05 18:25 44.61746 17.29701 36998 ft 474 kts 135°
2026-05-05 18:26 44.57287 17.36517 37015 ft 474 kts 135°
2026-05-05 18:26 44.52823 17.43323 37011 ft 474 kts 135°
2026-05-05 18:27 44.48356 17.50117 37025 ft 474 kts 135°
2026-05-05 18:27 44.43878 17.56913 37029 ft 476 kts 135°
2026-05-05 18:28 44.37157 17.67080 37018 ft 475 kts 135°
2026-05-05 18:28 44.32667 17.73853 37021 ft 475 kts 135°
2026-05-05 18:29 44.28176 17.80610 37038 ft 475 kts 135°
2026-05-05 18:29 44.23662 17.87385 37034 ft 477 kts 135°
2026-05-05 18:30 44.19134 17.94164 37044 ft 478 kts 135°
2026-05-05 18:30 44.14601 18.00935 37050 ft 478 kts 135°
2026-05-05 18:31 44.10075 18.07680 37052 ft 476 kts 135°
2026-05-05 18:31 44.05528 18.14438 37062 ft 480 kts 135°
2026-05-05 18:32 44.00968 18.21200 37066 ft 479 kts 135°
2026-05-05 18:32 43.96400 18.27958 37072 ft 479 kts 135°
2026-05-05 18:33 43.91837 18.34692 37079 ft 479 kts 136°
2026-05-05 18:33 43.87264 18.41424 37056 ft 479 kts 136°
2026-05-05 18:34 43.82697 18.48132 37081 ft 478 kts 136°
2026-05-05 18:34 43.78159 18.54782 37064 ft 478 kts 136°
2026-05-05 18:35 43.73588 18.61464 37074 ft 479 kts 136°
2026-05-05 18:35 43.68992 18.68166 37073 ft 481 kts 136°
2026-05-05 18:36 43.64389 18.74862 37059 ft 480 kts 136°
2026-05-05 18:36 43.59786 18.81544 37044 ft 480 kts 136°
2026-05-05 18:37 43.55176 18.88219 37067 ft 481 kts 136°
2026-05-05 18:37 43.50544 18.94909 37059 ft 483 kts 136°
2026-05-05 18:38 43.45906 19.01593 37065 ft 482 kts 136°
2026-05-05 18:38 43.41271 19.08256 37047 ft 482 kts 136°
2026-05-05 18:39 43.36629 19.14913 37062 ft 483 kts 136°
2026-05-05 18:39 43.31962 19.21591 37067 ft 486 kts 136°
2026-05-05 18:40 43.27280 19.28274 37052 ft 485 kts 136°
2026-05-05 18:40 43.22598 19.34941 37053 ft 485 kts 136°
2026-05-05 18:41 43.17933 19.41569 37052 ft 486 kts 136°
2026-05-05 18:41 43.13243 19.48219 37056 ft 486 kts 136°
2026-05-05 18:42 43.08541 19.54866 37047 ft 486 kts 135°
2026-05-05 18:42 43.03841 19.61497 37055 ft 486 kts 135°
2026-05-05 18:43 42.99132 19.68123 37056 ft 486 kts 136°
2026-05-05 18:43 42.94422 19.74741 37063 ft 485 kts 136°
2026-05-05 18:44 42.89713 19.81343 37073 ft 486 kts 135°
2026-05-05 18:44 42.84989 19.87949 37061 ft 486 kts 135°
2026-05-05 18:45 42.80248 19.94563 37062 ft 488 kts 135°
2026-05-05 18:45 42.75541 20.01123 37065 ft 487 kts 134°
2026-05-05 18:46 42.71254 20.08260 37073 ft 489 kts 130°
2026-05-05 18:46 42.66936 20.15411 37066 ft 488 kts 130°
2026-05-05 18:47 42.62615 20.22506 37049 ft 487 kts 130°
2026-05-05 18:47 42.58296 20.29580 37034 ft 486 kts 130°
2026-05-05 18:48 42.53953 20.36674 37038 ft 489 kts 130°
2026-05-05 18:48 42.49610 20.43753 37044 ft 488 kts 130°
2026-05-05 18:49 42.45288 20.50780 37044 ft 487 kts 130°
2026-05-05 18:49 42.40945 20.57826 37046 ft 487 kts 130°
2026-05-05 18:50 42.36603 20.64853 37048 ft 487 kts 130°
2026-05-05 18:50 42.32251 20.71877 37047 ft 487 kts 130°
2026-05-05 18:51 42.27898 20.78889 37056 ft 489 kts 130°
2026-05-05 18:51 42.23519 20.85924 37048 ft 488 kts 130°
2026-05-05 18:52 42.19149 20.92928 37052 ft 488 kts 130°
2026-05-05 18:52 42.14778 20.99923 37049 ft 488 kts 130°
2026-05-05 18:53 42.10326 21.06701 37056 ft 483 kts 137°
2026-05-05 18:53 42.05425 21.12964 37030 ft 488 kts 137°
2026-05-05 18:54 42.00489 21.19233 37004 ft 488 kts 137°
2026-05-05 18:54 41.95538 21.25502 37040 ft 490 kts 137°
2026-05-05 18:55 41.90587 21.31759 37025 ft 488 kts 137°
2026-05-05 18:55 41.85623 21.38017 37013 ft 489 kts 137°
2026-05-05 18:56 41.80693 21.44219 37008 ft 489 kts 137°
2026-05-05 18:56 41.75719 21.50462 37007 ft 490 kts 137°
2026-05-05 18:57 41.70736 21.56702 37013 ft 491 kts 137°
2026-05-05 18:57 41.65746 21.62937 37010 ft 491 kts 137°
2026-05-05 18:58 41.60752 21.69164 37013 ft 491 kts 137°
2026-05-05 18:58 41.55756 21.75379 37017 ft 491 kts 137°
2026-05-05 18:59 41.50755 21.81587 37010 ft 490 kts 137°
2026-05-05 18:59 41.46590 21.86746 37020 ft 493 kts 137°
2026-05-05 19:00 41.41546 21.92981 37024 ft 493 kts 137°
2026-05-05 19:00 41.36507 21.99197 37023 ft 493 kts 137°
2026-05-05 19:01 41.31472 22.05394 37028 ft 493 kts 137°
2026-05-05 19:01 41.26430 22.11586 37019 ft 493 kts 137°
2026-05-05 19:02 41.21420 22.17728 37021 ft 493 kts 137°
2026-05-05 19:02 41.16343 22.23863 37003 ft 494 kts 142°
2026-05-05 19:03 41.10977 22.29552 37051 ft 494 kts 141°
2026-05-05 19:03 41.05636 22.35296 36984 ft 493 kts 141°
2026-05-05 19:04 41.00310 22.41026 37009 ft 494 kts 141°
2026-05-05 19:04 40.94967 22.46763 37020 ft 496 kts 141°
2026-05-05 19:05 40.89604 22.52509 36995 ft 495 kts 141°
2026-05-05 19:05 40.84243 22.58240 36998 ft 496 kts 141°
2026-05-05 19:06 40.78916 22.63923 36996 ft 496 kts 141°
2026-05-05 19:06 40.73548 22.69637 36994 ft 495 kts 141°
2026-05-05 19:07 40.68168 22.75352 36995 ft 498 kts 141°
2026-05-05 19:07 40.62758 22.81088 37006 ft 498 kts 141°
2026-05-05 19:08 40.57366 22.86791 36996 ft 497 kts 141°
2026-05-05 19:08 40.51976 22.92481 36992 ft 497 kts 141°
2026-05-05 19:09 40.46582 22.98170 36997 ft 497 kts 140°
2026-05-05 19:09 40.41755 23.04563 37013 ft 497 kts 133°
2026-05-05 19:10 40.36992 23.11140 37023 ft 496 kts 132°
2026-05-05 19:10 40.32249 23.17687 36997 ft 493 kts 133°
2026-05-05 19:11 40.27520 23.24203 37023 ft 494 kts 133°
2026-05-05 19:11 40.22784 23.30713 37023 ft 493 kts 133°
2026-05-05 19:12 40.18053 23.37203 37013 ft 494 kts 133°
2026-05-05 19:12 40.13288 23.43725 37057 ft 497 kts 133°
2026-05-05 19:13 40.08528 23.50226 37023 ft 494 kts 133°
2026-05-05 19:13 40.03765 23.56717 37033 ft 495 kts 133°
2026-05-05 19:14 39.99000 23.63196 37039 ft 495 kts 133°
2026-05-05 19:14 39.94262 23.69625 37032 ft 495 kts 133°
2026-05-05 19:15 39.89492 23.76084 37057 ft 495 kts 133°
2026-05-05 19:15 39.84711 23.82544 37040 ft 495 kts 133°
2026-05-05 19:16 39.79925 23.88997 37039 ft 495 kts 133°
2026-05-05 19:16 39.75137 23.95439 37040 ft 495 kts 133°
2026-05-05 19:17 39.70343 24.01875 37040 ft 495 kts 133°
2026-05-05 19:17 39.65550 24.08295 37055 ft 495 kts 133°
2026-05-05 19:18 39.60766 24.14692 37039 ft 493 kts 133°
2026-05-05 19:18 39.56000 24.21048 37046 ft 495 kts 134°
2026-05-05 19:19 39.51197 24.27443 37044 ft 495 kts 134°
2026-05-05 19:19 39.46391 24.33827 37046 ft 495 kts 134°
2026-05-05 19:20 39.41572 24.40215 37058 ft 495 kts 134°
2026-05-05 19:20 39.36769 24.46569 37045 ft 494 kts 134°
2026-05-05 19:21 39.31961 24.52915 37051 ft 494 kts 134°
2026-05-05 19:21 39.27146 24.59258 37052 ft 495 kts 134°
2026-05-05 19:22 39.22321 24.65601 37056 ft 495 kts 134°
2026-05-05 19:22 39.17496 24.71930 37056 ft 495 kts 134°
2026-05-05 19:23 39.12664 24.78256 37055 ft 495 kts 134°
2026-05-05 19:23 39.07826 24.84575 37056 ft 495 kts 134°
2026-05-05 19:24 39.02984 24.90888 37059 ft 495 kts 134°
2026-05-05 19:24 38.98169 24.97151 37051 ft 497 kts 134°
2026-05-05 19:25 38.93294 25.03481 37071 ft 498 kts 134°
2026-05-05 19:25 38.88434 25.09778 37057 ft 496 kts 134°
2026-05-05 19:26 38.83571 25.16065 37062 ft 496 kts 134°
2026-05-05 19:26 38.78707 25.22340 37061 ft 496 kts 134°
2026-05-05 19:27 38.73834 25.28615 37061 ft 496 kts 134°
2026-05-05 19:27 38.68961 25.34876 37068 ft 497 kts 134°
2026-05-05 19:28 38.64075 25.41143 37064 ft 498 kts 134°
2026-05-05 19:28 38.59178 25.47409 37065 ft 498 kts 135°
2026-05-05 19:29 38.54302 25.53635 37064 ft 498 kts 135°
2026-05-05 19:29 38.49403 25.59879 37064 ft 498 kts 135°
2026-05-05 19:30 38.44501 25.66116 37083 ft 497 kts 135°
2026-05-05 19:30 38.39607 25.72331 37031 ft 496 kts 135°
2026-05-05 19:31 38.37169 25.75423 36823 ft 491 kts 135°
2026-05-05 19:31 38.34767 25.78466 36519 ft 484 kts 135°
2026-05-05 19:31 38.32388 25.81478 36227 ft 482 kts 134°
2026-05-05 19:31 38.30009 25.84486 35942 ft 480 kts 134°
2026-05-05 19:32 38.27652 25.87461 35578 ft 475 kts 135°
2026-05-05 19:32 38.25091 25.90105 34913 ft 476 kts 152°
2026-05-05 19:32 38.22076 25.91812 34234 ft 476 kts 162°
2026-05-05 19:32 38.18978 25.93304 33645 ft 476 kts 161°
2026-05-05 19:33 38.15885 25.94775 33153 ft 472 kts 162°
2026-05-05 19:33 38.12811 25.96207 32714 ft 468 kts 162°
2026-05-05 19:33 38.09755 25.97609 32213 ft 466 kts 162°
2026-05-05 19:33 38.06709 25.98997 31697 ft 465 kts 162°
2026-05-05 19:34 38.03703 26.00365 31190 ft 464 kts 162°
2026-05-05 19:34 38.00628 26.01762 30687 ft 463 kts 162°
2026-05-05 19:34 37.97603 26.03135 30194 ft 462 kts 162°
2026-05-05 19:35 37.91561 26.05874 29104 ft 459 kts 162°
2026-05-05 19:35 37.88567 26.07229 28607 ft 456 kts 162°
2026-05-05 19:35 37.85627 26.08559 28154 ft 451 kts 162°
2026-05-05 19:35 37.82691 26.09887 27700 ft 445 kts 162°
2026-05-05 19:36 37.79792 26.11195 27237 ft 438 kts 162°
2026-05-05 19:36 37.76943 26.12481 26791 ft 433 kts 162°
2026-05-05 19:36 37.74117 26.13754 26309 ft 428 kts 162°
2026-05-05 19:36 37.71321 26.15014 25846 ft 424 kts 162°
2026-05-05 19:37 37.68563 26.16255 25468 ft 418 kts 162°
2026-05-05 19:37 37.65838 26.17480 25046 ft 413 kts 162°
2026-05-05 19:37 37.63144 26.18690 24637 ft 408 kts 162°
2026-05-05 19:37 37.60478 26.19887 24226 ft 404 kts 162°
2026-05-05 19:38 37.57838 26.21072 23827 ft 401 kts 163°
2026-05-05 19:38 37.55214 26.22248 23337 ft 399 kts 162°
2026-05-05 19:38 37.52646 26.23399 22899 ft 394 kts 162°
2026-05-05 19:38 37.50083 26.24545 22519 ft 388 kts 162°
2026-05-05 19:39 37.47552 26.25677 22139 ft 385 kts 162°
2026-05-05 19:39 37.45036 26.26802 21757 ft 383 kts 162°
2026-05-05 19:39 37.42527 26.27922 21357 ft 382 kts 162°
2026-05-05 19:39 37.40027 26.29038 20971 ft 381 kts 162°
2026-05-05 19:40 37.37533 26.30150 20581 ft 379 kts 162°
2026-05-05 19:40 37.35048 26.31258 20197 ft 378 kts 162°
2026-05-05 19:40 37.32619 26.32540 19609 ft 383 kts 149°
2026-05-05 19:40 37.30347 26.34311 18930 ft 383 kts 149°
2026-05-05 19:41 37.28063 26.36014 18331 ft 379 kts 149°
2026-05-05 19:41 37.25818 26.37672 17858 ft 369 kts 149°
2026-05-05 19:41 37.23628 26.39282 17433 ft 361 kts 149°
2026-05-05 19:41 37.21483 26.40856 17062 ft 356 kts 149°
2026-05-05 19:42 37.19349 26.42420 16672 ft 355 kts 149°
2026-05-05 19:42 37.17214 26.43982 16287 ft 354 kts 149°
2026-05-05 19:42 37.15088 26.45537 15901 ft 353 kts 149°
2026-05-05 19:42 37.12976 26.47081 15578 ft 350 kts 149°
2026-05-05 19:43 37.10878 26.48613 15253 ft 348 kts 149°
2026-05-05 19:43 37.08793 26.50135 14919 ft 346 kts 149°
2026-05-05 19:43 37.06720 26.51648 14579 ft 344 kts 149°
2026-05-05 19:43 37.04659 26.53150 14240 ft 342 kts 148°
2026-05-05 19:44 37.02604 26.54646 13888 ft 341 kts 148°
2026-05-05 19:44 37.00559 26.56136 13522 ft 339 kts 148°
2026-05-05 19:44 36.98521 26.57619 13171 ft 338 kts 148°
2026-05-05 19:44 36.96500 26.59089 12822 ft 335 kts 148°
2026-05-05 19:45 36.94488 26.60550 12478 ft 333 kts 148°
2026-05-05 19:45 36.92513 26.61985 12144 ft 331 kts 148°
2026-05-05 19:45 36.91170 26.62960 11914 ft 330 kts 148°
2026-05-05 19:45 36.89190 26.64396 11574 ft 328 kts 148°
2026-05-05 19:46 36.86583 26.66286 11134 ft 326 kts 148°
2026-05-05 19:46 36.85260 26.67245 10910 ft 325 kts 148°
2026-05-05 19:46 36.82762 26.69250 10438 ft 320 kts 134°
2026-05-05 19:46 36.81739 26.70614 10196 ft 317 kts 128°
2026-05-05 19:47 36.80277 26.72650 9996 ft 312 kts 128°
2026-05-05 19:47 36.78837 26.74641 9721 ft 308 kts 128°
2026-05-05 19:47 36.77405 26.76616 9374 ft 306 kts 128°
2026-05-05 19:47 36.75994 26.78559 9033 ft 298 kts 128°
2026-05-05 19:48 36.74613 26.80461 8733 ft 294 kts 129°
2026-05-05 19:48 36.73244 26.82345 8424 ft 293 kts 129°
2026-05-05 19:48 36.71881 26.84219 8108 ft 291 kts 129°
2026-05-05 19:48 36.70522 26.86087 7805 ft 290 kts 129°
2026-05-05 19:49 36.69259 26.88018 7487 ft 285 kts 116°
2026-05-05 19:49 36.68380 26.90176 7159 ft 283 kts 111°
2026-05-05 19:49 36.67516 26.92372 6868 ft 281 kts 112°
2026-05-05 19:49 36.66650 26.94555 6575 ft 281 kts 112°
2026-05-05 19:50 36.65784 26.96731 6262 ft 280 kts 112°
2026-05-05 19:50 36.64920 26.98897 5950 ft 279 kts 112°
2026-05-05 19:50 36.64054 27.01055 5643 ft 278 kts 113°
2026-05-05 19:50 36.63198 27.03186 5435 ft 272 kts 113°
2026-05-05 19:51 36.62365 27.05261 5315 ft 263 kts 113°
2026-05-05 19:51 36.61557 27.07268 5189 ft 255 kts 113°
2026-05-05 19:51 36.60781 27.09199 5148 ft 243 kts 113°
2026-05-05 19:51 36.60043 27.11031 5069 ft 232 kts 113°
2026-05-05 19:52 36.59604 27.12852 4994 ft 211 kts 84°
2026-05-05 19:52 36.59900 27.14557 4998 ft 197 kts 66°
2026-05-05 19:52 36.60336 27.16152 5014 ft 193 kts 66°
2026-05-05 19:52 36.60776 27.17729 4884 ft 193 kts 65°
2026-05-05 19:53 36.61289 27.19261 4646 ft 190 kts 58°
2026-05-05 19:53 36.62011 27.20621 4319 ft 188 kts 43°
2026-05-05 19:53 36.63049 27.21476 4103 ft 176 kts 14°
2026-05-05 19:53 36.64226 27.21472 3848 ft 170 kts 340°
2026-05-05 19:54 36.65220 27.20637 3458 ft 178 kts 320°
2026-05-05 19:54 36.66121 27.19573 3167 ft 182 kts 320°
2026-05-05 19:54 36.67142 27.18611 2917 ft 186 kts 328°
2026-05-05 19:54 36.68228 27.17788 2739 ft 179 kts 332°
2026-05-05 19:55 36.69310 27.17066 2527 ft 175 kts 332°
2026-05-05 19:55 36.70365 27.16290 2196 ft 175 kts 328°
2026-05-05 19:55 36.71354 27.15461 1903 ft 167 kts 325°
2026-05-05 19:55 36.72280 27.14683 1733 ft 154 kts 328°
2026-05-05 19:56 36.73181 27.14014 1523 ft 146 kts 329°
2026-05-05 19:56 36.73992 27.13398 1460 ft 127 kts 327°
2026-05-05 19:56 36.74723 27.12810 1340 ft 128 kts 326°
2026-05-05 19:56 36.75501 27.12198 1148 ft 135 kts 328°
2026-05-05 19:57 36.76316 27.11575 962 ft 139 kts 327°
2026-05-05 19:57 36.77125 27.10912 768 ft 139 kts 327°
2026-05-05 19:57 36.77948 27.10282 578 ft 138 kts 328°
2026-05-05 19:57 36.78763 27.09653 410 ft 134 kts 327°
2026-05-05 19:58 36.79462 27.09107 413 ft 95 kts 328°
2026-05-05 19:58 36.79833 27.08820 420 ft 35 kts 330°
2026-05-05 19:58 36.80067 27.08642 415 ft 41 kts 328°
2026-05-05 19:58 36.80283 27.08473 421 ft 22 kts 327°
2026-05-05 19:59 36.80358 27.08491 424 ft 9 kts 83°
2026-05-05 19:59 36.80342 27.08579 423 ft 12 kts 104°
2026-05-05 19:59 36.80311 27.08683 418 ft 14 kts 132°
2026-05-05 19:59 36.80226 27.08755 423 ft 16 kts 148°
2026-05-05 20:00 36.80121 27.08837 412 ft 19 kts 148°
2026-05-05 20:00 36.80006 27.08927 417 ft 15 kts 148°
2026-05-05 20:00 36.79949 27.08972 413 ft 1 kts 147°
2026-05-05 20:00 36.79941 27.08983 417 ft 2 kts 113°
2026-05-05 20:01 36.79945 27.09001 420 ft 3 kts 65°
2026-05-05 20:01 36.79964 27.09042 415 ft 6 kts 58°
2026-05-05 20:01 36.79974 27.09061 415 ft 1 kts 58°
2026-05-05 20:01 36.79975 27.09063 417 ft 0 kts 58°